| time (UTC) | temp C | wind direction | speed KPH | gust KPH | rain 1hr cm | rain 24hr cm | rain mn cm | humidity % | barometer mb |
| 20260510090047 | 17 | 178 | 1.6 | 9.7 | 0.00 | 0.00 | 0.00 | 62 | 1063.4 |
| 20260510084544 | 17 | 214 | 1.6 | 8.0 | 0.00 | 0.00 | 0.00 | 64 | 1063.4 |
| 20260510083046 | 16 | 309 | 3.2 | 12.9 | 0.00 | 0.00 | 0.00 | 65 | 1063.5 |
| 20260510081544 | 16 | 96 | 3.2 | 12.9 | 0.00 | 0.00 | 0.00 | 68 | 1063.7 |
| 20260510080037 | 16 | 192 | 1.6 | 9.7 | 0.00 | 0.00 | 0.00 | 69 | 1063.7 |
| 20260510074532 | 15 | 304 | 1.6 | 12.9 | 0.00 | 0.00 | 0.00 | 71 | 1063.8 |
| 20260510073029 | 15 | 301 | 1.6 | 9.7 | 0.00 | 0.00 | 0.00 | 72 | 1064.0 |
| 20260510071536 | 13 | 290 | 3.2 | 12.9 | 0.00 | 0.00 | 0.00 | 73 | 1064.1 |
| 20260510070024 | 14 | 296 | 0.0 | 8.0 | 0.00 | 0.00 | 0.00 | 76 | 1064.2 |
| 20260510064520 | 13 | 245 | 1.6 | 11.3 | 0.00 | 0.00 | 0.00 | 79 | 1064.2 |
| 20260510063023 | 12 | 317 | 1.6 | 11.3 | 0.00 | 0.00 | 0.00 | 81 | 1064.3 |
| 20260510061533 | 11 | 304 | 3.2 | 11.3 | 0.00 | 0.00 | 0.00 | 83 | 1064.3 |
| 20260510060015 | 11 | 216 | 0.0 | 11.3 | 0.00 | 0.00 | 0.00 | 85 | 1064.3 |
| 20260510054514 | 11 | 218 | 0.0 | 6.4 | 0.00 | 0.00 | 0.00 | 86 | 1064.2 |
| 20260510053013 | 11 | 278 | 0.0 | 4.8 | 0.00 | 0.00 | 0.00 | 87 | 1064.2 |
| 20260510051513 | 10 | 222 | 1.6 | 8.0 | 0.00 | 0.00 | 0.00 | 87 | 1064.3 |
| 20260510050011 | 10 | 207 | 0.0 | 11.3 | 0.00 | 0.00 | 0.00 | 87 | 1064.3 |
| 20260510044511 | 10 | 281 | 0.0 | 8.0 | 0.00 | 0.00 | 0.00 | 86 | 1064.2 |
| 20260510043018 | 10 | 265 | 0.0 | 8.0 | 0.00 | 0.00 | 0.00 | 86 | 1064.2 |
| 20260510041609 | 10 | 328 | 0.0 | 6.4 | 0.00 | 0.00 | 0.00 | 86 | 1064.1 |
| 20260510040009 | 10 | 285 | 0.0 | 6.4 | 0.00 | 0.00 | 0.00 | 86 | 1064.2 |
| 20260510034507 | 10 | 278 | 1.6 | 8.0 | 0.00 | 0.00 | 0.00 | 85 | 1064.1 |
| 20260510033007 | 10 | 259 | 0.0 | 8.0 | 0.00 | 0.00 | 0.00 | 85 | 1064.2 |
| 20260510031508 | 10 | 84 | 1.6 | 6.4 | 0.00 | 0.00 | 0.00 | 85 | 1064.4 |
| 20260510030005 | 10 | 238 | 0.0 | 3.2 | 0.00 | 0.00 | 0.00 | 84 | 1064.5 |
| 20260510023001 | 10 | 300 | 1.6 | 6.4 | 0.00 | 0.00 | 0.00 | 85 | 1064.4 |
| 20260510021603 | 10 | 272 | 0.0 | 4.8 | 0.00 | 0.00 | 0.00 | 85 | 1064.4 |
| 20260510020058 | 9 | 257 | 0.0 | 1.6 | 0.00 | 0.00 | 0.00 | 85 | 1064.5 |
| 20260510014556 | 9 | 267 | 0.0 | 0.0 | 0.00 | 0.00 | 0.00 | 84 | 1064.6 |
| 20260510013055 | 9 | 268 | 0.0 | 0.0 | 0.00 | 0.00 | 0.00 | 82 | 1064.8 |
| 20260510011556 | 10 | 268 | 0.0 | 1.6 | 0.00 | 0.00 | 0.00 | 81 | 1064.8 |
| 20260510010048 | 10 | 273 | 0.0 | 0.0 | 0.00 | 0.00 | 0.00 | 79 | 1064.8 |
| 20260510004550 | 10 | 244 | 0.0 | 3.2 | 0.00 | 0.00 | 0.00 | 79 | 1065.0 |
| 20260510003103 | 11 | 231 | 0.0 | 0.0 | 0.00 | 0.00 | 0.00 | 78 | 1064.9 |
| 20260510001545 | 10 | 259 | 0.0 | 1.6 | 0.00 | 0.00 | 0.00 | 79 | 1064.9 |
| 20260510000046 | 10 | 249 | 0.0 | 0.0 | 0.00 | 0.00 | 0.00 | 79 | 1065.1 |
| 20260509234558 | 10 | 268 | 0.0 | 1.6 | 0.00 | 0.00 | 0.00 | 80 | 1065.3 |
| 20260509233043 | 10 | 280 | 0.0 | 1.6 | 0.00 | 0.00 | 0.00 | 79 | 1065.3 |
| 20260509231551 | 10 | 280 | 0.0 | 0.0 | 0.00 | 0.00 | 0.00 | 78 | 1065.3 |
| 20260509230038 | 11 | 280 | 0.0 | 1.6 | 0.00 | 0.00 | 0.00 | 78 | 1065.3 |
| 20260509224536 | 11 | 298 | 0.0 | 1.6 | 0.00 | 0.00 | 0.00 | 77 | 1065.4 |
| 20260509223035 | 11 | 299 | 0.0 | 0.0 | 0.00 | 0.00 | 0.00 | 76 | 1065.4 |
| 20260509221533 | 11 | 299 | 0.0 | 3.2 | 0.00 | 0.00 | 0.00 | 76 | 1065.4 |
| 20260509220029 | 12 | 266 | 0.0 | 0.0 | 0.00 | 0.00 | 0.00 | 74 | 1065.5 |
| 20260509214528 | 12 | 266 | 0.0 | 0.0 | 0.00 | 0.00 | 0.00 | 71 | 1065.6 |
| 20260509213027 | 13 | 272 | 0.0 | 0.0 | 0.00 | 0.00 | 0.00 | 69 | 1065.4 |
| 20260509211528 | 13 | 255 | 0.0 | 1.6 | 0.00 | 0.00 | 0.00 | 68 | 1065.3 |
| 20260509210026 | 14 | 262 | 0.0 | 3.2 | 0.00 | 0.00 | 0.00 | 66 | 1065.2 |
| 20260509204528 | 15 | 302 | 0.0 | 1.6 | 0.00 | 0.00 | 0.00 | 65 | 1065.2 |
| 20260509203033 | 15 | 268 | 0.0 | 4.8 | 0.00 | 0.00 | 0.00 | 65 | 1065.3 |
| 20260509201525 | 15 | 251 | 0.0 | 4.8 | 0.00 | 0.00 | 0.00 | 64 | 1065.3 |
| 20260509200025 | 15 | 295 | 0.0 | 3.2 | 0.00 | 0.00 | 0.00 | 64 | 1065.2 |
| 20260509194531 | 15 | 271 | 0.0 | 3.2 | 0.00 | 0.00 | 0.00 | 64 | 1064.9 |
| 20260509193023 | 15 | 140 | 0.0 | 0.0 | 0.00 | 0.00 | 0.00 | 64 | 1064.9 |
| 20260509191523 | 15 | 210 | 0.0 | 0.0 | 0.00 | 0.00 | 0.00 | 65 | 1064.9 |
| 20260509190022 | 16 | 210 | 0.0 | 0.0 | 0.00 | 0.00 | 0.00 | 62 | 1064.9 |
| 20260509184521 | 17 | 209 | 0.0 | 0.0 | 0.00 | 0.00 | 0.00 | 59 | 1064.6 |
| 20260509183026 | 18 | 185 | 0.0 | 0.0 | 0.00 | 0.00 | 0.00 | 57 | 1064.6 |
| 20260509181536 | 18 | 185 | 0.0 | 0.0 | 0.00 | 0.00 | 0.00 | 53 | 1064.6 |
| 20260509180020 | 19 | 302 | 0.0 | 1.6 | 0.00 | 0.00 | 0.00 | 51 | 1064.6 |
| 20260509174520 | 19 | 162 | 0.0 | 1.6 | 0.00 | 0.00 | 0.00 | 51 | 1064.4 |
| 20260509173024 | 20 | 172 | 0.0 | 3.2 | 0.00 | 0.00 | 0.00 | 50 | 1064.3 |
| 20260509171520 | 20 | 165 | 0.0 | 3.2 | 0.00 | 0.00 | 0.00 | 49 | 1064.3 |
| 20260509170016 | 20 | 268 | 0.0 | 3.2 | 0.00 | 0.00 | 0.00 | 49 | 1064.4 |
| 20260509164514 | 20 | 226 | 0.0 | 1.6 | 0.00 | 0.00 | 0.00 | 49 | 1064.5 |
| 20260509163018 | 21 | 98 | 0.0 | 3.2 | 0.00 | 0.00 | 0.00 | 47 | 1064.6 |
| 20260509161514 | 22 | 321 | 4.8 | 12.9 | 0.00 | 0.00 | 0.00 | 44 | 1064.5 |
| 20260509160012 | 22 | 296 | 0.0 | 8.0 | 0.00 | 0.00 | 0.00 | 44 | 1064.5 |
| 20260509154509 | 21 | 240 | 0.0 | 3.2 | 0.00 | 0.00 | 0.00 | 44 | 1064.6 |
| 20260509153007 | 21 | 89 | 0.0 | 6.4 | 0.00 | 0.00 | 0.00 | 46 | 1064.7 |
| 20260509151507 | 21 | 265 | 0.0 | 3.2 | 0.00 | 0.00 | 0.00 | 46 | 1065.0 |
| 20260509150011 | 21 | 274 | 0.0 | 8.0 | 0.00 | 0.00 | 0.00 | 46 | 1065.0 |
| 20260509144500 | 21 | 199 | 0.0 | 3.2 | 0.00 | 0.00 | 0.00 | 45 | 1065.1 |
| 20260509143059 | 21 | 103 | 0.0 | 4.8 | 0.00 | 0.00 | 0.00 | 46 | 1065.3 |
| 20260509141608 | 21 | 89 | 1.6 | 8.0 | 0.00 | 0.00 | 0.00 | 48 | 1065.4 |
| 20260509140105 | 22 | 304 | 1.6 | 9.7 | 0.00 | 0.00 | 0.00 | 45 | 1065.4 |
| 20260509134559 | 22 | 295 | 1.6 | 6.4 | 0.00 | 0.00 | 0.00 | 45 | 1065.5 |
| 20260509133052 | 22 | 123 | 0.0 | 6.4 | 0.00 | 0.00 | 0.00 | 44 | 1065.7 |
| 20260509131549 | 22 | 32 | 0.0 | 4.8 | 0.00 | 0.00 | 0.00 | 45 | 1065.9 |
| 20260509130045 | 22 | 68 | 1.6 | 8.0 | 0.00 | 0.00 | 0.00 | 46 | 1066.1 |
| 20260509124542 | 21 | 108 | 0.0 | 9.7 | 0.00 | 0.00 | 0.00 | 48 | 1066.3 |
| 20260509123040 | 21 | 67 | 1.6 | 8.0 | 0.00 | 0.00 | 0.00 | 48 | 1066.4 |
| 20260509121539 | 21 | 91 | 1.6 | 9.7 | 0.00 | 0.00 | 0.00 | 50 | 1066.6 |
| 20260509120035 | 20 | 210 | 0.0 | 4.8 | 0.00 | 0.00 | 0.00 | 52 | 1066.8 |
| 20260509114534 | 20 | 132 | 0.0 | 9.7 | 0.00 | 0.00 | 0.00 | 50 | 1066.9 |
| 20260509113034 | 20 | 242 | 0.0 | 4.8 | 0.00 | 0.00 | 0.00 | 52 | 1066.9 |
| 20260509111531 | 20 | 122 | 1.6 | 6.4 | 0.00 | 0.00 | 0.00 | 51 | 1067.2 |
| 20260509110034 | 21 | 91 | 0.0 | 11.3 | 0.00 | 0.00 | 0.00 | 48 | 1067.3 |
| 20260509104536 | 20 | 347 | 1.6 | 9.7 | 0.00 | 0.00 | 0.00 | 50 | 1067.4 |
| 20260509103026 | 21 | 127 | 3.2 | 6.4 | 0.00 | 0.00 | 0.00 | 48 | 1067.6 |
| 20260509101527 | 20 | 238 | 0.0 | 6.4 | 0.00 | 0.00 | 0.00 | 48 | 1067.6 |
| 20260509100022 | 20 | 107 | 3.2 | 9.7 | 0.00 | 0.00 | 0.00 | 49 | 1067.7 |
| 20260509094520 | 20 | 157 | 3.2 | 8.0 | 0.00 | 0.00 | 0.00 | 51 | 1067.8 |
| 20260509093018 | 20 | 301 | 0.0 | 6.4 | 0.00 | 0.00 | 0.00 | 54 | 1067.8 |